[[{"header":{"parameterUnit":"m.s-1","parameterCategory":2,"la1":30.2991,"la2":30.254,"lo1":-89.0895,"lo2":-89.0444,"dy":0.0017,"dx":0.0017,"nx":28,"ny":28,"refTime":"2023-10-03T03:00:00:Z","depth":"0","parameterNumber":2,"parameterNumberName":"U-component_of_CURRENTS"},"data":[0,0,0,0,0,0,0,0,0,0,0,0,0,0,0,0,0,0,0,0,0,0,0,0,0,0,0,0,0,0,0,0,0,0,0,0,0,0,0,0,0,0,0,0,0,0,0,0,0,0,0,0,0,0,0,0,0,0,0.2149,0.2151,0,0.222,0.2221,0.2221,0.2196,0.2195,0.2194,0.2193,0.2135,0.2134,0.2134,0,0,0,0,0,0,0,0,0,0,0,0,0,0.2037,0.2038,0.2149,0.2151,0.2152,0.222,0.2221,0.2221,0.2196,0.2195,0.2194,0.2193,0.2135,0.2135,0.2134,0,0,0,0,0,0,0,0,0,0,0,0,0,0.2088,0.2038,0.2149,0.2153,0.2154,0.222,0.2221,0.2221,0.2197,0.2195,0.2194,0.2192,0.2136,0.2135,0.2134,0.2158,0,0,0.2131,0.213,0,0,0,0,0,0,0,0,0.2085,0.2091,0.2151,0.2153,0.2155,0.2203,0.216,0.2196,0.2197,0.2174,0.2193,0.2192,0.2151,0.2149,0.2158,0.2155,0.2152,0.2131,0.213,0.213,0.2129,0,0,0,0,0,0,0,0.2082,0.2089,0.2171,0.2153,0.2155,0.2167,0.2171,0.2167,0.2163,0.2176,0.2176,0.2194,0.215,0.2159,0.2157,0.2152,0.2131,0.213,0.2129,0.2129,0.2178,0.218,0,0,0,0,0,0,0.2085,0.2085,0.2169,0.2174,0.2123,0.217,0.2175,0.2184,0.2166,0.2164,0.2195,0.2193,0.2162,0.2158,0.2154,0.2181,0.213,0.2129,0.2128,0.2177,0.2179,0.2181,0,0,0,0,0,0,0.2082,0.2092,0.2166,0.2136,0.2147,0.2174,0.2184,0.2186,0.2199,0.2183,0.2177,0.2207,0.216,0.2156,0.2167,0.2178,0.2128,0.2128,0.2174,0.2177,0.218,0.2234,0,0,0,0,0,0,0.2079,0.209,0.2099,0.2137,0.215,0.2209,0.2187,0.2189,0.2216,0.2213,0.2191,0.2184,0.2159,0.2169,0.2166,0.2176,0.2127,0.2172,0.2176,0.2179,0.223,0.2239,0.2246,0,0,0,0,0,0.2074,0.2088,0.2098,0.2109,0.216,0.2211,0.2218,0.2227,0.2218,0.2231,0.2224,0.2185,0.2188,0.217,0.2166,0.2176,0.217,0.2175,0.2179,0.2227,0.2237,0.2246,0,0,0,0,0,0,0.2041,0.209,0.21,0.2128,0.2171,0.2209,0.2227,0.2238,0.2246,0.2239,0.2212,0.2206,0.2218,0.2202,0.2182,0.2205,0.2172,0.2176,0.221,0.2219,0.2227,0.2211,0.2126,0,0,0,0,0,0.2043,0.2063,0.2117,0.2139,0.2164,0.2199,0.2222,0.2235,0.2252,0.2254,0.2242,0.2234,0.2236,0.223,0.2227,0.2243,0.2237,0.2248,0.2256,0.2263,0.225,0.2273,0.2281,0.2195,0.2195,0.2195,0,0,0.2036,0.2067,0.2077,0.2134,0.2165,0.2208,0.2207,0.2249,0.2274,0.2246,0.2263,0.226,0.2249,0.2264,0.2268,0.2248,0.2292,0.2268,0.2274,0.2257,0.2278,0.2286,0.2294,0.2198,0.2197,0.2197,0,0,0.204,0.2063,0.2088,0.213,0.2193,0.2218,0.2235,0.2282,0.2289,0.2323,0.2307,0.2315,0.2319,0.2311,0.2308,0.2362,0.2335,0.2364,0.2384,0.2408,0.2414,0.242,0.2447,0.2454,0.2365,0.2365,0.2365,0,0.2033,0.2073,0.2105,0.215,0.2184,0.2224,0.2265,0.229,0.2331,0.2339,0.2331,0.235,0.2338,0.2354,0.2371,0.2374,0.2388,0.2345,0.2416,0.2421,0.2426,0.2452,0.2459,0.2368,0.2368,0.2368,0.2367,0,0.2067,0.2103,0.2125,0.2188,0.2225,0.227,0.2318,0.2342,0.2358,0.238,0.2404,0.2403,0.2408,0.2415,0.2405,0.2436,0.2437,0.2425,0.2386,0.2437,0.2463,0.247,0.2373,0.2372,0.2371,0.237,0,0,0.2048,0.213,0.214,0.2173,0.225,0.2284,0.2325,0.2375,0.2396,0.2426,0.2448,0.2462,0.2461,0.2459,0.2455,0.247,0.2525,0.2463,0.2463,0.248,0.2588,0.2586,0.2593,0.2529,0.253,0.2531,0.26,0,0.2071,0.2141,0.2178,0.2243,0.2286,0.2327,0.236,0.2403,0.2432,0.2462,0.2471,0.2491,0.2481,0.2486,0.2505,0.2515,0.2542,0.2507,0.2544,0.2544,0.2527,0.26,0.2408,0.2453,0.2607,0.2608,0.2609,0,0.2105,0.2146,0.2206,0.2269,0.2291,0.2327,0.2378,0.2415,0.2463,0.2485,0.251,0.252,0.2547,0.2531,0.2578,0.2561,0.2579,0.2587,0.259,0.2564,0.2554,0.2423,0.2459,0.2338,0.2619,0.2618,0.2617,0,0.2086,0.2168,0.2207,0.2236,0.2312,0.233,0.2365,0.2417,0.2443,0.2498,0.2519,0.2558,0.2576,0.2604,0.2628,0.261,0.2683,0.2659,0.2676,0.2676,0.2505,0.2489,0.241,0.2697,0.2697,0.2697,0.2697,0,0.2106,0.2143,0.2199,0.2227,0.2264,0.2319,0.2356,0.2397,0.2447,0.2483,0.2526,0.2555,0.2595,0.2639,0.2654,0.2697,0.2712,0.269,0.2697,0.2524,0.2509,0.2388,0.2349,0.2699,0.2699,0.2698,0.2698,0,0.2092,0.2136,0.2181,0.2242,0.226,0.2286,0.2344,0.2371,0.2426,0.2473,0.249,0.2564,0.2634,0.2678,0.2734,0.2732,0.2665,0.2777,0.2579,0.2562,0.2455,0.2427,0.2333,0.2258,0.2801,0.2801,0.2802,0,0.2094,0.2114,0.217,0.2187,0.2216,0.2257,0.2285,0.2352,0.2385,0.2475,0.2496,0.258,0.2627,0.2723,0.2739,0.2784,0.2678,0.2633,0.2558,0.2434,0.2408,0.2337,0.2275,0.2359,0.2356,0.2353,0.2351,0,0.2084,0.2096,0.2123,0.2154,0.2186,0.2209,0.2256,0.2275,0.2358,0.2392,0.2454,0.2494,0.2609,0.2572,0.2648,0.2642,0.2451,0.2583,0.248,0.2086,0.1971,0.1906,0.2346,0.2327,0.233,0.2331,0.2333,0.2334,0.2059,0.2059,0.2083,0.2095,0.2137,0.214,0.2116,0.2178,0.22,0.2217,0.2337,0.2337,0.2355,0.2435,0.2435,0.2275,0.2347,0.214,0.213,0.2081,0.1954,0.2368,0.2348,0.2351,0.2353,0.2355,0.2356,0,0.2,0.1995,0.2018,0.2026,0.2021,0.2058,0.2073,0.2024,0.2008,0.2083,0.2101,0.2044,0.1989,0.2,0.1907,0.1803,0.1704,0.1714,0.1509,0.1484,0.1847,0.177,0.159,0.159,0.159,0.1591,0.1591,0.1591,0.1969,0.1939,0.1929,0.1885,0.1887,0.1825,0.1789,0.1754,0.1772,0.1701,0.1661,0.1683,0.1669,0.1566,0.1413,0.1362,0.1223,0.1147,0.1218,0.1393,0.1428,0.1463,0.1378,0.112,0.1119,0.0717,0.0714,0.0711]},{"header":{"parameterUnit":"m.s-1","parameterCategory":2,"la1":30.2991,"la2":30.254,"lo1":-89.0895,"lo2":-89.0444,"dy":0.0017,"dx":0.0017,"nx":28,"ny":28,"refTime":"2023-10-03T03:00:00:Z","depth":"0","parameterNumber":3,"parameterNumberName":"V-component_of_CURRENTS"},"data":[0,0,0,0,0,0,0,0,0,0,0,0,0,0,0,0,0,0,0,0,0,0,0,0,0,0,0,0,0,0,0,0,0,0,0,0,0,0,0,0,0,0,0,0,0,0,0,0,0,0,0,0,0,0,0,0,0,0,-0.0174,-0.0175,0,-0.0273,-0.0274,-0.0275,-0.0309,-0.0309,-0.0308,-0.0308,-0.0377,-0.0379,-0.0381,0,0,0,0,0,0,0,0,0,0,0,0,0,-0.0069,-0.0071,-0.0174,-0.0175,-0.0177,-0.0273,-0.0274,-0.0275,-0.0309,-0.0309,-0.0308,-0.0308,-0.0377,-0.0379,-0.0381,0,0,0,0,0,0,0,0,0,0,0,0,0,-0.0133,-0.0071,-0.0174,-0.0207,-0.0212,-0.0273,-0.0274,-0.0275,-0.0309,-0.0308,-0.0308,-0.0308,-0.0376,-0.0379,-0.0382,-0.0404,0,0,-0.0391,-0.0392,0,0,0,0,0,0,0,0,-0.013,-0.0137,-0.0201,-0.0205,-0.021,-0.0281,-0.0263,-0.0318,-0.0309,-0.0269,-0.0308,-0.0308,-0.0344,-0.035,-0.0365,-0.0407,-0.041,-0.0391,-0.0393,-0.0394,-0.0395,0,0,0,0,0,0,0,-0.0125,-0.0133,-0.021,-0.0203,-0.0208,-0.0237,-0.0245,-0.0274,-0.0304,-0.0272,-0.0276,-0.0291,-0.0346,-0.0362,-0.0367,-0.0411,-0.0391,-0.0393,-0.0395,-0.0396,-0.0483,-0.0484,0,0,0,0,0,0,-0.0116,-0.0129,-0.0207,-0.0214,-0.0172,-0.0239,-0.0248,-0.0256,-0.0304,-0.0312,-0.0291,-0.0293,-0.0357,-0.0364,-0.037,-0.0401,-0.0394,-0.0397,-0.0398,-0.0483,-0.0483,-0.0484,0,0,0,0,0,0,-0.0113,-0.0122,-0.0203,-0.0176,-0.0189,-0.0241,-0.025,-0.0258,-0.0274,-0.032,-0.0326,-0.0298,-0.0357,-0.0365,-0.0402,-0.0404,-0.0398,-0.0401,-0.0482,-0.0483,-0.0483,-0.0463,0,0,0,0,0,0,-0.011,-0.012,-0.012,-0.0175,-0.019,-0.0236,-0.0251,-0.026,-0.0285,-0.0287,-0.0328,-0.0334,-0.0358,-0.0398,-0.0405,-0.0408,-0.0403,-0.0481,-0.0482,-0.0483,-0.0463,-0.0463,-0.0463,0,0,0,0,0,-0.0106,-0.0104,-0.0119,-0.0129,-0.0189,-0.0237,-0.0246,-0.0281,-0.0285,-0.0293,-0.0326,-0.0333,-0.0409,-0.0401,-0.041,-0.0413,-0.0481,-0.0482,-0.0483,-0.0463,-0.0463,-0.0463,0,0,0,0,0,0,-0.0063,-0.0109,-0.0127,-0.0141,-0.0186,-0.0243,-0.0253,-0.0278,-0.0311,-0.0306,-0.0346,-0.0355,-0.0385,-0.0405,-0.0395,-0.0441,-0.0444,-0.0447,-0.0425,-0.0426,-0.0426,-0.0393,-0.0405,0,0,0,0,0,-0.0054,-0.0059,-0.0118,-0.013,-0.0148,-0.0199,-0.0221,-0.0245,-0.0285,-0.0298,-0.0332,-0.0365,-0.0398,-0.0416,-0.0445,-0.0474,-0.0475,-0.0481,-0.0481,-0.0481,-0.0461,-0.0477,-0.0476,-0.0488,-0.0488,-0.0488,0,0,-0.0042,-0.0068,-0.0073,-0.012,-0.0153,-0.0179,-0.0211,-0.0238,-0.0257,-0.03,-0.0329,-0.0364,-0.0405,-0.0438,-0.0452,-0.0455,-0.0478,-0.0482,-0.0482,-0.0462,-0.0478,-0.0477,-0.0475,-0.0489,-0.0488,-0.0488,0,0,-0.002,-0.0043,-0.004,-0.0075,-0.0122,-0.0156,-0.0162,-0.0219,-0.0239,-0.0279,-0.0312,-0.035,-0.0402,-0.0435,-0.0457,-0.0475,-0.0476,-0.0483,-0.0461,-0.0477,-0.0476,-0.0474,-0.0471,-0.047,-0.0486,-0.0486,-0.0486,0,-0.0005,-0.0015,-0.005,-0.0064,-0.0089,-0.0142,-0.0155,-0.0187,-0.0249,-0.0264,-0.0281,-0.0358,-0.0398,-0.0436,-0.0447,-0.0472,-0.0472,-0.0457,-0.0475,-0.0474,-0.0473,-0.047,-0.0468,-0.0485,-0.0485,-0.0486,-0.0486,0,0.0012,-0.0001,-0.0004,-0.0036,-0.0064,-0.0085,-0.0137,-0.0159,-0.019,-0.0228,-0.0268,-0.033,-0.0371,-0.0399,-0.0431,-0.0449,-0.0447,-0.047,-0.0469,-0.047,-0.0467,-0.0466,-0.0484,-0.0484,-0.0485,-0.0485,0,0,0.0047,0.0016,0.0013,0.0003,-0.0051,-0.0071,-0.0094,-0.0136,-0.0139,-0.0203,-0.0215,-0.0293,-0.0319,-0.0345,-0.0393,-0.0417,-0.0424,-0.0436,-0.0437,-0.0421,-0.0439,-0.0414,-0.041,-0.0448,-0.0448,-0.0447,-0.0439,0,0.0064,0.0059,0.0035,0.0021,0.0008,-0.0038,-0.0054,-0.0092,-0.0126,-0.0149,-0.0214,-0.0244,-0.0302,-0.0316,-0.0352,-0.0402,-0.042,-0.0422,-0.045,-0.045,-0.0419,-0.0408,-0.0327,-0.031,-0.0438,-0.0437,-0.0437,0,0.008,0.0074,0.0074,0.0052,0.0045,0.0035,0.0013,-0.0008,-0.0051,-0.0074,-0.0114,-0.016,-0.0212,-0.0256,-0.0328,-0.0324,-0.0371,-0.0412,-0.0414,-0.039,-0.0422,-0.0332,-0.0303,-0.0376,-0.0436,-0.0436,-0.0436,0,0.0119,0.0098,0.0105,0.0092,0.0062,0.0065,0.0052,0.002,0.0018,-0.0016,-0.0012,-0.0086,-0.0109,-0.0181,-0.0271,-0.0296,-0.0334,-0.0383,-0.0402,-0.0401,-0.0335,-0.0328,-0.0366,-0.0421,-0.0421,-0.0421,-0.0421,0,0.0138,0.014,0.0128,0.0129,0.0146,0.0111,0.0133,0.0112,0.01,0.0116,0.0038,0.0047,-0.0089,-0.0136,-0.0228,-0.0294,-0.03,-0.0379,-0.0394,-0.0327,-0.0319,-0.0382,-0.0442,-0.042,-0.042,-0.042,-0.042,0,0.0174,0.0162,0.0172,0.0163,0.0165,0.018,0.019,0.0209,0.0192,0.0217,0.0213,0.0152,0.0101,-0.0021,-0.013,-0.0222,-0.0327,-0.0325,-0.0225,-0.0229,-0.0327,-0.0388,-0.0421,-0.0474,-0.0345,-0.0344,-0.0343,0,0.0185,0.0198,0.0212,0.0231,0.0232,0.0251,0.0271,0.0257,0.0282,0.0292,0.0314,0.0274,0.0264,0.0123,-0.0024,-0.0154,-0.0272,-0.0195,-0.0241,-0.0302,-0.0382,-0.0427,-0.0473,-0.0146,-0.0144,-0.0142,-0.0141,0,0.0215,0.0231,0.0249,0.0294,0.0322,0.0345,0.0375,0.041,0.0409,0.0445,0.049,0.0491,0.0378,0.0284,0.0097,0.0002,-0.0223,-0.0164,-0.0253,-0.0241,-0.0263,-0.033,-0.0181,-0.0125,-0.0127,-0.0128,-0.0129,-0.0129,0.0246,0.0277,0.0318,0.0356,0.0389,0.0435,0.0468,0.0515,0.0575,0.0628,0.0637,0.0668,0.0526,0.0298,0.016,-0.0051,-0.0117,-0.0129,-0.0199,-0.024,-0.0284,-0.009,-0.0044,-0.0045,-0.0046,-0.0046,-0.0047,0,0.0289,0.0331,0.0374,0.0423,0.0465,0.0468,0.0531,0.0569,0.0657,0.0731,0.0786,0.0764,0.0611,0.0387,0.0108,-0.0057,-0.0146,-0.016,-0.0207,-0.0261,-0.0091,-0.0076,-0.0001,-0.0001,-0.0001,-0.0001,-0.0001,-0.0001,0.0319,0.0381,0.0403,0.0473,0.0507,0.0555,0.0591,0.0657,0.0719,0.0802,0.0837,0.0848,0.0695,0.0275,-0.0054,-0.0141,-0.0313,-0.0287,-0.0445,-0.0322,-0.0325,-0.0328,-0.0328,-0.0307,-0.0308,-0.0554,-0.0557,-0.0559]}],[{"header":{"parameterUnit":"m.s-1","parameterCategory":2,"la1":30.2991,"la2":30.254,"lo1":-89.0895,"lo2":-89.0444,"dy":0.0017,"dx":0.0017,"nx":28,"ny":28,"refTime":"2023-10-03T03:00:00:Z","depth":"2","parameterNumber":2,"parameterNumberName":"U-component_of_CURRENTS"},"data":[0,0,0,0,0,0,0,0,0,0,0,0,0,0,0,0,0,0,0,0,0,0,0,0,0,0,0,0,0,0,0,0,0,0,0,0,0,0,0,0,0,0,0,0,0,0,0,0,0,0,0,0,0,0,0,0,0,0,0.2187,0.2189,0,0.2303,0.2304,0.2305,0.2304,0.2302,0.2301,0.23,0.2259,0.2259,0.2259,0,0,0,0,0,0,0,0,0,0,0,0,0,0.2063,0.2064,0.2187,0.2189,0.2191,0.2303,0.2304,0.2305,0.2304,0.2302,0.2301,0.23,0.2259,0.2259,0.2259,0,0,0,0,0,0,0,0,0,0,0,0,0,0.2137,0.2064,0.2187,0.2207,0.221,0.2303,0.2304,0.2305,0.2304,0.2302,0.2301,0.2299,0.2259,0.2259,0.2259,0.2292,0,0,0.2259,0.2259,0,0,0,0,0,0,0,0,0.2132,0.2141,0.2202,0.2206,0.221,0.2291,0.2246,0.2295,0.2304,0.2264,0.23,0.2298,0.226,0.2259,0.2281,0.229,0.2288,0.2259,0.2259,0.2259,0.2259,0,0,0,0,0,0,0,0.2127,0.2136,0.2228,0.2204,0.2209,0.2245,0.2252,0.2256,0.2263,0.2267,0.2268,0.2289,0.226,0.2281,0.2279,0.2288,0.2259,0.2259,0.2259,0.2259,0.232,0.2322,0,0,0,0,0,0,0.2119,0.2131,0.2225,0.2232,0.2171,0.2248,0.2256,0.2263,0.2266,0.2268,0.2291,0.2289,0.2282,0.2279,0.2277,0.2302,0.2259,0.2259,0.2259,0.2319,0.2321,0.2323,0,0,0,0,0,0,0.2116,0.2126,0.222,0.2189,0.2204,0.2252,0.226,0.2266,0.2294,0.2287,0.2284,0.2312,0.228,0.2278,0.2296,0.23,0.2259,0.2259,0.2317,0.2319,0.2322,0.2359,0,0,0,0,0,0,0.2111,0.2123,0.2133,0.2188,0.2205,0.228,0.2262,0.227,0.2311,0.231,0.2305,0.2299,0.2279,0.2297,0.2296,0.2299,0.2258,0.2315,0.2318,0.2321,0.2356,0.2363,0.2369,0,0,0,0,0,0.2106,0.2122,0.2132,0.2145,0.2213,0.2282,0.2294,0.232,0.2314,0.2336,0.2335,0.23,0.2316,0.2299,0.2298,0.23,0.2313,0.2317,0.2321,0.2353,0.2361,0.2369,0,0,0,0,0,0,0.2073,0.2126,0.2137,0.2168,0.2225,0.2283,0.2313,0.2332,0.2355,0.2348,0.2329,0.2325,0.2338,0.2329,0.2311,0.2331,0.2306,0.231,0.2331,0.2339,0.2345,0.2331,0.2258,0,0,0,0,0,0.2073,0.2093,0.2157,0.2183,0.2214,0.2267,0.2301,0.2322,0.2352,0.2361,0.2361,0.2358,0.2356,0.2355,0.2355,0.2375,0.2374,0.2376,0.2383,0.2388,0.2379,0.2402,0.2409,0.2335,0.2335,0.2335,0,0,0.2066,0.2101,0.2111,0.2178,0.2222,0.2277,0.2281,0.2339,0.237,0.2351,0.2385,0.2381,0.2369,0.2385,0.2389,0.2375,0.2414,0.2393,0.2397,0.2384,0.2406,0.2413,0.2419,0.2338,0.2337,0.2337,0,0,0.2075,0.2098,0.2126,0.2182,0.2259,0.2292,0.2311,0.2379,0.2391,0.2435,0.2421,0.2428,0.2439,0.243,0.2423,0.2471,0.2448,0.2471,0.2487,0.251,0.2516,0.2521,0.2547,0.2554,0.2473,0.2473,0.2473,0,0.207,0.2112,0.2149,0.2207,0.225,0.2298,0.2349,0.2382,0.2443,0.2449,0.2444,0.2465,0.2455,0.2462,0.2474,0.248,0.2495,0.2454,0.2517,0.2521,0.2525,0.2551,0.2558,0.2475,0.2475,0.2475,0.2474,0,0.2113,0.2156,0.2184,0.2258,0.2306,0.2362,0.2416,0.2446,0.2462,0.2488,0.2506,0.2509,0.2514,0.2516,0.2504,0.2529,0.2531,0.2522,0.2491,0.2535,0.256,0.2566,0.2478,0.2478,0.2477,0.2476,0,0,0.2086,0.2188,0.2202,0.2242,0.2338,0.238,0.2422,0.2472,0.249,0.2529,0.2547,0.2552,0.2554,0.2549,0.2543,0.2558,0.2605,0.2553,0.2554,0.2568,0.2666,0.2615,0.2617,0.261,0.2611,0.2611,0.2678,0,0.2115,0.2206,0.2247,0.2329,0.2386,0.2428,0.2461,0.2505,0.2529,0.2561,0.256,0.2578,0.2568,0.2569,0.2587,0.2597,0.2621,0.2588,0.263,0.2631,0.2571,0.2622,0.2342,0.2372,0.2684,0.2685,0.2686,0,0.2154,0.221,0.2286,0.2361,0.2386,0.2427,0.2473,0.2512,0.2554,0.2571,0.2593,0.2602,0.2626,0.2612,0.2656,0.2639,0.2656,0.2664,0.2667,0.2603,0.2591,0.2377,0.2372,0.2696,0.2695,0.2694,0.2694,0,0.2128,0.2236,0.2283,0.2323,0.2414,0.2426,0.246,0.2508,0.2529,0.2579,0.2598,0.2635,0.2652,0.2679,0.2703,0.2685,0.2756,0.2734,0.2708,0.2705,0.2463,0.2437,0.277,0.277,0.277,0.277,0.277,0,0.2143,0.219,0.2274,0.2308,0.2351,0.2414,0.2443,0.248,0.2527,0.256,0.2601,0.2629,0.267,0.2713,0.2727,0.2744,0.2784,0.2715,0.2718,0.2472,0.2447,0.2717,0.271,0.2772,0.2772,0.2771,0.2771,0,0.2111,0.2172,0.2238,0.2321,0.2342,0.2371,0.2429,0.2452,0.2503,0.2547,0.2562,0.2636,0.2702,0.2746,0.2801,0.2769,0.2791,0.279,0.2505,0.2472,0.2718,0.2712,0.2755,0.2754,0.2752,0.2752,0.2751,0,0.2104,0.2135,0.2227,0.2254,0.2287,0.2335,0.2364,0.243,0.2461,0.2547,0.2567,0.2648,0.2687,0.2755,0.2699,0.2711,0.2816,0.2482,0.2386,0.2717,0.2717,0.2713,0.2709,0.2089,0.2083,0.2078,0.2074,0,0.2081,0.2109,0.2154,0.2212,0.2251,0.2286,0.2334,0.2353,0.2434,0.2461,0.2515,0.2547,0.2596,0.2461,0.248,0.2455,0.2451,0.2382,0.2794,0.2146,0.2097,0.2095,0.2111,0.203,0.2034,0.2037,0.204,0.2041,0.2054,0.2067,0.2118,0.215,0.2201,0.2213,0.219,0.2257,0.2273,0.2243,0.2341,0.2265,0.2266,0.2123,0.208,0.2044,0.2225,0.2108,0.212,0.2138,0.2058,0.201,0.1912,0.1916,0.1919,0.1922,0.1924,0,0.1996,0.201,0.2047,0.208,0.2079,0.2124,0.2146,0.2083,0.2059,0.2039,0.1991,0.1747,0.1632,0.1702,0.1541,0.1548,0.1496,0.1523,0.1414,0.1458,0.1498,0.1382,0.106,0.1058,0.1056,0.1054,0,0,0.1973,0.1954,0.1951,0.1924,0.1942,0.1891,0.1861,0.1798,0.1749,0.1611,0.15,0.1433,0.1563,0.1233,0.1213,0.1117,0.1277,0.1071,0.1754,0.1664,0.1701,0.182,0.1692,0,0,0,0,0]},{"header":{"parameterUnit":"m.s-1","parameterCategory":2,"la1":30.2991,"la2":30.254,"lo1":-89.0895,"lo2":-89.0444,"dy":0.0017,"dx":0.0017,"nx":28,"ny":28,"refTime":"2023-10-03T03:00:00:Z","depth":"2","parameterNumber":3,"parameterNumberName":"V-component_of_CURRENTS"},"data":[0,0,0,0,0,0,0,0,0,0,0,0,0,0,0,0,0,0,0,0,0,0,0,0,0,0,0,0,0,0,0,0,0,0,0,0,0,0,0,0,0,0,0,0,0,0,0,0,0,0,0,0,0,0,0,0,0,0,-0.0073,-0.0073,0,-0.0121,-0.0122,-0.0123,-0.0187,-0.0188,-0.0189,-0.0189,-0.0306,-0.0308,-0.0311,0,0,0,0,0,0,0,0,0,0,0,0,0,-0.0034,-0.0034,-0.0073,-0.0073,-0.0073,-0.0121,-0.0122,-0.0123,-0.0187,-0.0188,-0.0189,-0.019,-0.0305,-0.0308,-0.0311,0,0,0,0,0,0,0,0,0,0,0,0,0,-0.0066,-0.0034,-0.0073,-0.0108,-0.0112,-0.0121,-0.0122,-0.0124,-0.0187,-0.0188,-0.0189,-0.019,-0.0304,-0.0308,-0.0311,-0.0312,0,0,-0.0323,-0.0324,0,0,0,0,0,0,0,0,-0.0065,-0.0068,-0.0103,-0.0106,-0.011,-0.0146,-0.0151,-0.0189,-0.0187,-0.0162,-0.0189,-0.0191,-0.0256,-0.0263,-0.0274,-0.0317,-0.0322,-0.0323,-0.0325,-0.0327,-0.0328,0,0,0,0,0,0,0,-0.0062,-0.0067,-0.0096,-0.0103,-0.0107,-0.0121,-0.0127,-0.0158,-0.0206,-0.0164,-0.0168,-0.0168,-0.0259,-0.0271,-0.0278,-0.0324,-0.0323,-0.0326,-0.0328,-0.033,-0.0431,-0.0432,0,0,0,0,0,0,-0.0048,-0.0064,-0.0094,-0.0097,-0.0085,-0.0121,-0.0128,-0.0136,-0.0205,-0.0214,-0.0167,-0.017,-0.0264,-0.0273,-0.0282,-0.0341,-0.0327,-0.033,-0.0332,-0.0431,-0.0431,-0.0432,0,0,0,0,0,0,-0.0047,-0.0051,-0.0092,-0.0078,-0.0084,-0.012,-0.0129,-0.0137,-0.0164,-0.0205,-0.0217,-0.0188,-0.0265,-0.0277,-0.0336,-0.0344,-0.0332,-0.0335,-0.043,-0.0431,-0.0431,-0.0424,0,0,0,0,0,0,-0.0046,-0.005,-0.0052,-0.0078,-0.0084,-0.0078,-0.0128,-0.0137,-0.0159,-0.0166,-0.0227,-0.0238,-0.0267,-0.033,-0.0339,-0.0349,-0.0338,-0.0429,-0.043,-0.0431,-0.0424,-0.0425,-0.0425,0,0,0,0,0,-0.0045,-0.0041,-0.0053,-0.0056,-0.0086,-0.0076,-0.008,-0.0112,-0.0159,-0.0148,-0.0224,-0.0237,-0.0342,-0.0334,-0.0345,-0.0355,-0.0429,-0.043,-0.0431,-0.0424,-0.0425,-0.0425,0,0,0,0,0,0,-0.0027,-0.0047,-0.0061,-0.0065,-0.006,-0.0085,-0.0084,-0.0117,-0.0167,-0.0196,-0.0251,-0.0266,-0.0317,-0.0337,-0.0327,-0.0386,-0.0384,-0.0387,-0.0374,-0.0376,-0.0377,-0.034,-0.0341,0,0,0,0,0,-0.0021,-0.0022,-0.0035,-0.0032,-0.0032,-0.0064,-0.007,-0.0095,-0.0139,-0.0163,-0.022,-0.0281,-0.0325,-0.0353,-0.0389,-0.0426,-0.0422,-0.0437,-0.0438,-0.0438,-0.0416,-0.0429,-0.0428,-0.0435,-0.0435,-0.0435,0,0,-0.0011,-0.0022,-0.0023,-0.0027,-0.0036,-0.0045,-0.0071,-0.008,-0.0111,-0.0168,-0.0244,-0.0286,-0.0335,-0.038,-0.0403,-0.0403,-0.0436,-0.044,-0.044,-0.0416,-0.043,-0.0429,-0.0428,-0.0436,-0.0436,-0.0436,0,0,0.0013,-0.0002,0.0004,0.0005,-0.0004,-0.0028,-0.0033,-0.0073,-0.0109,-0.0168,-0.0228,-0.0278,-0.035,-0.0386,-0.0413,-0.0438,-0.0438,-0.0449,-0.0428,-0.0442,-0.0441,-0.044,-0.0438,-0.0437,-0.0452,-0.0452,-0.0452,0,0.0023,0.0027,0.0014,0.0017,0.001,-0.0026,-0.003,-0.0067,-0.0132,-0.0157,-0.0189,-0.0299,-0.0349,-0.0396,-0.041,-0.0438,-0.0436,-0.0423,-0.0442,-0.0441,-0.044,-0.0438,-0.0436,-0.0451,-0.0451,-0.0452,-0.0452,0,0.0048,0.005,0.0058,0.0037,0.0024,0.003,-0.0023,-0.0056,-0.0118,-0.0157,-0.0215,-0.0284,-0.0334,-0.0367,-0.0402,-0.0422,-0.042,-0.044,-0.0435,-0.0438,-0.0436,-0.0435,-0.0451,-0.0451,-0.0451,-0.0451,0,0,0.0077,0.0077,0.0079,0.0074,0.0037,0.0027,-0.0022,-0.0055,-0.0079,-0.0154,-0.0178,-0.0271,-0.0292,-0.0322,-0.037,-0.0392,-0.0403,-0.0409,-0.041,-0.0397,-0.0415,-0.0356,-0.0349,-0.0424,-0.0424,-0.0424,-0.0417,0,0.0107,0.0125,0.0101,0.0093,0.0095,0.0046,0.0013,-0.0037,-0.0082,-0.0116,-0.0182,-0.0222,-0.028,-0.0297,-0.0332,-0.0379,-0.0398,-0.0401,-0.042,-0.042,-0.036,-0.0345,-0.0316,-0.0302,-0.0416,-0.0416,-0.0416,0,0.0136,0.0144,0.0155,0.0131,0.0125,0.0101,0.0054,0.0025,-0.0024,-0.0052,-0.0094,-0.014,-0.0191,-0.0236,-0.0306,-0.0302,-0.0349,-0.0389,-0.039,-0.0328,-0.0358,-0.0318,-0.0296,-0.0414,-0.0414,-0.0414,-0.0414,0,0.0174,0.0172,0.0182,0.0176,0.0144,0.0126,0.0098,0.0049,0.0042,0.0004,0.0007,-0.0066,-0.0089,-0.016,-0.0248,-0.0273,-0.0307,-0.0357,-0.0346,-0.0343,-0.0315,-0.0309,-0.0392,-0.0392,-0.0392,-0.0392,-0.0392,0,0.0219,0.0222,0.0203,0.0217,0.0211,0.0163,0.0165,0.0134,0.0119,0.0134,0.0055,0.0065,-0.0069,-0.0113,-0.0204,-0.025,-0.0273,-0.0319,-0.033,-0.0312,-0.0306,-0.0402,-0.0403,-0.0392,-0.0392,-0.0392,-0.0392,0,0.0258,0.0259,0.0269,0.025,0.0238,0.0232,0.0216,0.0229,0.021,0.0234,0.023,0.017,0.0124,0.0003,-0.0102,-0.0173,-0.0241,-0.0256,-0.0213,-0.0218,-0.0282,-0.0283,-0.024,-0.0237,-0.0235,-0.0234,-0.0232,0,0.0282,0.03,0.0301,0.0312,0.0305,0.0297,0.0305,0.0278,0.0301,0.031,0.0334,0.0296,0.0304,0.0185,0.0035,-0.0083,-0.016,-0.0133,-0.0178,-0.0246,-0.0263,-0.0267,-0.0271,-0.0152,-0.015,-0.0148,-0.0147,0,0.0326,0.033,0.0342,0.0378,0.0384,0.0394,0.0403,0.044,0.0432,0.0474,0.0526,0.0544,0.0434,0.033,0.0167,0.0079,-0.0112,-0.0101,-0.0185,-0.0182,-0.0159,-0.0177,-0.0185,-0.0133,-0.0135,-0.0136,-0.0136,-0.0137,0.0351,0.0368,0.04,0.0423,0.0441,0.0482,0.0507,0.0551,0.0616,0.0666,0.0683,0.0694,0.0558,0.0362,0.0221,0.0033,0.0027,-0.0056,-0.0063,-0.0071,-0.0049,-0.0023,0.0033,0.0033,0.0033,0.0032,0.0032,0,0.0384,0.0403,0.0442,0.0474,0.0512,0.0504,0.056,0.0603,0.0704,0.0742,0.0804,0.0694,0.0618,0.0419,0.0175,0.0067,0.0016,0.0011,-0.0045,-0.0055,-0.0064,-0.0046,0.0039,0.0038,0.0037,0.0036,0,0,0.0399,0.0437,0.0457,0.052,0.0544,0.0581,0.0615,0.0691,0.0727,0.0787,0.077,0.0808,0.0623,0.0441,0.0289,0.0143,0.0059,0.0119,0.0135,0.008,0.0071,-0.0067,-0.0044,0,0,0,0,0]}],[{"header":{"parameterUnit":"m.s-1","parameterCategory":2,"la1":30.2991,"la2":30.254,"lo1":-89.0895,"lo2":-89.0444,"dy":0.0017,"dx":0.0017,"nx":28,"ny":28,"refTime":"2023-10-03T03:00:00:Z","depth":"4","parameterNumber":2,"parameterNumberName":"U-component_of_CURRENTS"},"data":[0,0,0,0,0,0,0,0,0,0,0,0,0,0,0,0,0,0,0,0,0,0,0,0,0,0,0,0,0,0,0,0,0,0,0,0,0,0,0,0,0,0,0,0,0,0,0,0,0,0,0,0,0,0,0,0,0,0,0.1132,0.1132,0,0.1065,0.1064,0.1063,0.1074,0.1076,0.1077,0.1078,0.114,0.114,0.1141,0,0,0,0,0,0,0,0,0,0,0,0,0,0.1211,0.121,0.1132,0.1132,0.1131,0.1065,0.1064,0.1063,0.1074,0.1076,0.1077,0.1078,0.1139,0.114,0.1141,0,0,0,0,0,0,0,0,0,0,0,0,0,0.1163,0.1209,0.1133,0.1129,0.1128,0.1065,0.1064,0.1062,0.1074,0.1076,0.1077,0.1079,0.1139,0.114,0.1141,0.1108,0,0,0.1143,0.1143,0,0,0,0,0,0,0,0,0.1166,0.116,0.113,0.1129,0.1128,0.108,0.1114,0.1084,0.1073,0.1094,0.1078,0.108,0.1131,0.1132,0.1113,0.1111,0.1114,0.1143,0.1143,0.1144,0.1144,0,0,0,0,0,0,0,0.1169,0.1163,0.1105,0.1129,0.1128,0.111,0.1105,0.1107,0.1105,0.1092,0.1093,0.1086,0.1131,0.1112,0.1115,0.1115,0.1143,0.1144,0.1144,0.1144,0.1195,0.1196,0,0,0,0,0,0,0.1179,0.1166,0.1107,0.1103,0.1152,0.1107,0.1102,0.1093,0.1102,0.1104,0.1084,0.1086,0.111,0.1114,0.1117,0.1185,0.1144,0.1145,0.1145,0.1194,0.1195,0.1196,0,0,0,0,0,0,0.1181,0.1174,0.111,0.1134,0.1124,0.1104,0.1094,0.1091,0.1097,0.1094,0.11,0.1096,0.1111,0.1116,0.1155,0.1184,0.1145,0.1146,0.1193,0.1195,0.1196,0.1254,0,0,0,0,0,0,0.1184,0.1175,0.1185,0.1134,0.1123,0.1095,0.1092,0.1088,0.1088,0.1091,0.1106,0.1112,0.1113,0.1154,0.1156,0.1185,0.1146,0.1192,0.1194,0.1195,0.1251,0.1258,0.1263,0,0,0,0,0,0.1187,0.1186,0.1186,0.118,0.1133,0.1095,0.1088,0.1079,0.1087,0.1092,0.1114,0.1113,0.1166,0.1156,0.1157,0.1187,0.1191,0.1193,0.1195,0.1249,0.1256,0.1263,0,0,0,0,0,0,0.1225,0.1186,0.1185,0.1174,0.115,0.1098,0.1101,0.1089,0.1102,0.1124,0.1123,0.113,0.1173,0.1168,0.1157,0.1205,0.1178,0.1181,0.1218,0.1225,0.1231,0.1219,0.1147,0,0,0,0,0,0.1237,0.1231,0.1189,0.1185,0.1176,0.1143,0.1131,0.1125,0.112,0.1127,0.1142,0.116,0.1174,0.1194,0.1203,0.1229,0.1226,0.1248,0.1254,0.1259,0.1251,0.1288,0.1297,0.1203,0.1203,0.1203,0,0,0.1252,0.1229,0.1228,0.1194,0.1176,0.1157,0.1142,0.1134,0.1129,0.1134,0.1161,0.1182,0.1184,0.1218,0.1237,0.1226,0.1284,0.1262,0.1266,0.1254,0.1291,0.13,0.1309,0.1204,0.1204,0.1204,0,0,0.1259,0.1259,0.1251,0.1228,0.1206,0.1188,0.1192,0.1166,0.1173,0.1186,0.1199,0.1242,0.1252,0.1271,0.1275,0.1315,0.1311,0.1322,0.1349,0.1387,0.1395,0.1402,0.1409,0.1417,0.133,0.133,0.133,0,0.1283,0.1258,0.1245,0.1222,0.1207,0.1205,0.1189,0.1185,0.1183,0.1199,0.121,0.1253,0.1271,0.1305,0.1327,0.133,0.1339,0.1325,0.1395,0.1402,0.1408,0.1414,0.1422,0.1333,0.1333,0.1332,0.1332,0,0.1263,0.1254,0.1248,0.1224,0.1213,0.1202,0.1189,0.1213,0.1231,0.1229,0.1278,0.1305,0.1341,0.1352,0.1351,0.1408,0.1396,0.1397,0.1379,0.1422,0.1425,0.1432,0.1337,0.1336,0.1335,0.1335,0,0,0.1282,0.1243,0.1245,0.1228,0.1213,0.1194,0.1216,0.1222,0.1247,0.1274,0.1305,0.1345,0.1386,0.1393,0.1418,0.1444,0.1506,0.1446,0.1446,0.1455,0.1575,0.1473,0.1469,0.153,0.1531,0.1533,0.1559,0,0.1273,0.1237,0.1223,0.1203,0.118,0.1192,0.1205,0.1222,0.1256,0.1299,0.1338,0.138,0.1393,0.1435,0.1471,0.1512,0.1526,0.1497,0.1529,0.1529,0.1436,0.1475,0.1537,0.1564,0.1566,0.1567,0.1567,0,0.125,0.1227,0.1206,0.1183,0.1178,0.1181,0.1219,0.1233,0.1296,0.1328,0.1395,0.1424,0.1502,0.149,0.1577,0.1566,0.157,0.1574,0.1576,0.146,0.1439,0.1512,0.1579,0.1578,0.1577,0.1576,0.1576,0,0.125,0.1214,0.1203,0.1188,0.1172,0.1189,0.1207,0.1257,0.1282,0.137,0.1409,0.149,0.155,0.1588,0.1624,0.1618,0.168,0.1678,0.157,0.1562,0.1621,0.1613,0.1694,0.1694,0.1694,0.1694,0.1694,0,0.1223,0.1212,0.1206,0.1193,0.1195,0.1193,0.1224,0.1269,0.1331,0.1363,0.1446,0.1475,0.1578,0.1623,0.1641,0.1635,0.171,0.1569,0.1566,0.1643,0.1638,0.1625,0.1617,0.1695,0.1695,0.1694,0.1694,0,0.1209,0.1207,0.119,0.1188,0.1192,0.1203,0.1225,0.1246,0.1327,0.1381,0.1413,0.1499,0.1561,0.1619,0.1674,0.1648,0.1651,0.1608,0.1676,0.1676,0.1499,0.1493,0.1509,0.1506,0.1503,0.15,0.1499,0,0.1184,0.1179,0.1194,0.119,0.1191,0.12,0.1206,0.1256,0.1272,0.1366,0.1381,0.146,0.1505,0.1504,0.1578,0.1603,0.157,0.1564,0.1531,0.1486,0.1482,0.1481,0.1479,0.1494,0.1493,0.1493,0.1492,0,0.1138,0.1174,0.1171,0.1175,0.1178,0.1152,0.1165,0.1162,0.122,0.1306,0.1306,0.1329,0.1377,0.1424,0.1448,0.1457,0.1584,0.1534,0.154,0.1509,0.1469,0.1467,0.1469,0.1482,0.1484,0.1484,0.1485,0,0.1123,0.1124,0.1146,0.1132,0.1139,0.1095,0.1095,0.1076,0.1092,0.1189,0.1179,0.1263,0.134,0.1344,0.137,0.1383,0.1363,0.1325,0.1341,0.1353,0.1293,0.1218,0.115,0,0,0,0,0,0.1087,0.1085,0.1082,0.1053,0.1059,0.1056,0.1059,0.1059,0.111,0.108,0.1121,0.1149,0.1182,0.1221,0.1206,0.1322,0.1384,0.13,0.1351,0.1428,0.1439,0.1386,0,0,0,0,0,0,0.1061,0.108,0.1068,0.0992,0.0961,0.094,0.094,0.0966,0.0934,0.1006,0.102,0.1095,0.1139,0.1187,0.1191,0.1209,0.1219,0.1358,0.1355,0.1422,0.1432,0.1441,0.139,0,0,0,0,0]},{"header":{"parameterUnit":"m.s-1","parameterCategory":2,"la1":30.2991,"la2":30.254,"lo1":-89.0895,"lo2":-89.0444,"dy":0.0017,"dx":0.0017,"nx":28,"ny":28,"refTime":"2023-10-03T03:00:00:Z","depth":"4","parameterNumber":3,"parameterNumberName":"V-component_of_CURRENTS"},"data":[0,0,0,0,0,0,0,0,0,0,0,0,0,0,0,0,0,0,0,0,0,0,0,0,0,0,0,0,0,0,0,0,0,0,0,0,0,0,0,0,0,0,0,0,0,0,0,0,0,0,0,0,0,0,0,0,0,0,0.0169,0.017,0,0.0239,0.024,0.024,0.0263,0.0263,0.0262,0.0262,0.028,0.028,0.0281,0,0,0,0,0,0,0,0,0,0,0,0,0,0.0104,0.0105,0.0169,0.017,0.0171,0.0239,0.024,0.0241,0.0263,0.0263,0.0262,0.0262,0.0279,0.028,0.0281,0,0,0,0,0,0,0,0,0,0,0,0,0,0.0148,0.0105,0.0169,0.0191,0.0193,0.0239,0.024,0.0241,0.0263,0.0263,0.0262,0.0262,0.0279,0.028,0.0281,0.0296,0,0,0.0284,0.0285,0,0,0,0,0,0,0,0,0.0146,0.015,0.0187,0.0189,0.0192,0.0242,0.0223,0.0257,0.0263,0.0236,0.0262,0.0262,0.0263,0.0265,0.0279,0.0297,0.0298,0.0285,0.0285,0.0286,0.0286,0,0,0,0,0,0,0,0.0142,0.0148,0.0197,0.0188,0.0191,0.0213,0.0219,0.023,0.025,0.0239,0.0241,0.0249,0.0264,0.0278,0.028,0.0298,0.0284,0.0285,0.0286,0.0287,0.033,0.0331,0,0,0,0,0,0,0.0133,0.0145,0.0194,0.0199,0.0168,0.0215,0.0221,0.0226,0.0251,0.0255,0.0249,0.025,0.0277,0.0279,0.028,0.0325,0.0286,0.0287,0.0287,0.033,0.0331,0.0331,0,0,0,0,0,0,0.0131,0.0136,0.0192,0.0174,0.0182,0.0216,0.0222,0.0228,0.0249,0.026,0.0262,0.0265,0.0276,0.0279,0.0304,0.0324,0.0287,0.0288,0.0329,0.033,0.0331,0.0397,0,0,0,0,0,0,0.0129,0.0135,0.014,0.0173,0.0183,0.0227,0.0223,0.023,0.0255,0.0256,0.0274,0.0275,0.0276,0.0302,0.0305,0.0325,0.0289,0.0329,0.033,0.0331,0.0394,0.04,0.0405,0,0,0,0,0,0.0126,0.0139,0.014,0.0146,0.0187,0.0228,0.0236,0.0258,0.0256,0.0273,0.0286,0.0275,0.0309,0.0304,0.0307,0.0328,0.0328,0.0329,0.033,0.0392,0.0399,0.0405,0,0,0,0,0,0,0.0119,0.0143,0.0145,0.0165,0.0195,0.0232,0.0251,0.0263,0.0288,0.0286,0.0291,0.0294,0.032,0.0312,0.0306,0.034,0.0313,0.0315,0.0358,0.0365,0.037,0.0369,0.029,0,0,0,0,0,0.0117,0.013,0.0159,0.0177,0.0191,0.022,0.024,0.0254,0.0279,0.029,0.0307,0.0315,0.0326,0.0337,0.0344,0.0371,0.0341,0.0381,0.0386,0.0391,0.039,0.0363,0.0366,0.0335,0.0335,0.0335,0,0,0.012,0.0135,0.0143,0.0176,0.0199,0.0235,0.0232,0.0264,0.0297,0.0287,0.0337,0.0337,0.0336,0.0366,0.0376,0.0365,0.0385,0.0392,0.0397,0.0393,0.0365,0.0368,0.037,0.0336,0.0336,0.0335,0,0,0.014,0.0145,0.0166,0.0192,0.0226,0.0248,0.0258,0.0299,0.032,0.0362,0.0358,0.037,0.0401,0.0405,0.0409,0.0444,0.0411,0.0446,0.0481,0.0456,0.0458,0.0459,0.0429,0.0427,0.0453,0.0453,0.0453,0,0.0143,0.0172,0.0181,0.0213,0.0242,0.0255,0.0295,0.0321,0.0368,0.0386,0.0382,0.0418,0.0417,0.0446,0.0461,0.0458,0.0435,0.0461,0.0463,0.0464,0.0464,0.0432,0.043,0.0456,0.0456,0.0455,0.0455,0,0.0182,0.0209,0.0227,0.0268,0.0299,0.0335,0.0369,0.04,0.042,0.0443,0.0477,0.0478,0.0496,0.0498,0.0496,0.0507,0.0487,0.0471,0.0449,0.0472,0.0436,0.0432,0.0461,0.046,0.0459,0.0458,0,0,0.019,0.0242,0.0251,0.0281,0.0332,0.0365,0.0413,0.0464,0.0494,0.0522,0.0559,0.0576,0.0568,0.0569,0.0561,0.0544,0.0531,0.0518,0.0515,0.0491,0.0473,0.0435,0.0426,0.0519,0.0519,0.0519,0.0447,0,0.0223,0.0282,0.0306,0.0377,0.0414,0.0442,0.0492,0.0533,0.0558,0.0594,0.0587,0.0612,0.0598,0.0604,0.0589,0.0543,0.0524,0.0552,0.045,0.0447,0.0413,0.0421,0.0518,0.0444,0.0443,0.0442,0.0442,0,0.0263,0.0298,0.0363,0.0433,0.0453,0.0499,0.0568,0.0614,0.0651,0.0665,0.0678,0.067,0.0663,0.0636,0.0573,0.0594,0.0542,0.0499,0.0494,0.0432,0.0401,0.0414,0.0434,0.0435,0.0435,0.0436,0.0436,0,0.0273,0.0346,0.0397,0.0422,0.0497,0.0537,0.0585,0.0637,0.0677,0.0705,0.0716,0.0708,0.07,0.0638,0.056,0.0566,0.047,0.0463,0.0379,0.0375,0.0401,0.04,0.041,0.041,0.041,0.041,0.041,0,0.0306,0.0351,0.0406,0.0438,0.0508,0.0559,0.0633,0.067,0.0719,0.0757,0.0753,0.0756,0.0698,0.0642,0.0566,0.0457,0.0472,0.038,0.0354,0.0431,0.0434,0.0398,0.0398,0.0407,0.0408,0.0408,0.0409,0,0.0314,0.0348,0.0412,0.0488,0.0515,0.057,0.0665,0.071,0.075,0.0791,0.0799,0.0789,0.0715,0.0639,0.0529,0.0461,0.0359,0.0315,0.0399,0.0379,0.028,0.0284,0.0217,0.0215,0.0213,0.0212,0.0211,0,0.0327,0.0356,0.0436,0.0473,0.0512,0.0593,0.0647,0.0719,0.0762,0.0801,0.0812,0.0769,0.0743,0.0559,0.048,0.033,0.0309,0.0252,0.0273,0.0279,0.026,0.0267,0.0273,0.0208,0.0208,0.0207,0.0207,0,0.0347,0.0368,0.0413,0.0478,0.0541,0.0612,0.0693,0.0722,0.0794,0.0824,0.0803,0.0731,0.0649,0.0538,0.0424,0.0317,0.0287,0.0234,0.0237,0.0257,0.0268,0.0252,0.026,0.0201,0.0202,0.0202,0.0203,0,0.0357,0.0379,0.0423,0.0482,0.0553,0.0611,0.0662,0.0709,0.0754,0.0797,0.0781,0.0709,0.0684,0.0529,0.042,0.0316,0.0292,0.025,0.0252,0.0257,0.0292,0.0313,0.0234,0,0,0,0,0,0.0364,0.0375,0.0425,0.0486,0.0552,0.0589,0.068,0.0725,0.0785,0.0763,0.0777,0.0697,0.0551,0.0499,0.0386,0.0387,0.0274,0.0249,0.0225,0.017,0.0176,0.0207,0,0,0,0,0,0,0.0366,0.0399,0.0411,0.0469,0.0505,0.0577,0.0633,0.0677,0.0675,0.0715,0.0642,0.0636,0.0501,0.06,0.0367,0.0342,0.0304,0.0198,0.0195,0.0166,0.0172,0.0177,0.0211,0,0,0,0,0]}]]